This demonstration page uses our WeatherBlox Daily Observations layout. Learn more.

Hourly Observations for April 16, 2015

Temp ( °F °C ) Dew Point ( °F °C ) Humidity (%) Winds ( mph kmh ) Pressure ( in mb ) Visibility ( mi km ) Precip ( " mm )
12:15 am 00:15 Cloudy 55 12.7 48 8.7 77 77 E 5 7 29.94 1014 10 16.0934 0 0
12:35 am 00:35 Cloudy with Nearby Thunderstorms 55 12.6 48 8.7 77 77 E 6 9 29.94 1014 10 16.0934 0 0
12:55 am 00:55 Cloudy with Nearby Thunderstorms 55 12.7 48 8.8 77 77 E 7 11 29.94 1014 10 16.0934 0 0
1:15 am 01:15 Cloudy with Nearby Thunderstorms 55 12.8 48 9 78 78 NE 5 7 29.97 1015 10 16.0934 0 0
1:35 am 01:35 Cloudy 55 12.5 49 9.3 81 81 E 7 11 29.97 1015 10 16.0934 0 0
1:55 am 01:55 Cloudy with Light Thunderstorms 54 12.2 50 10 87 87 E 12 19 29.97 1015 7 11.26538 0 0
2:15 am 02:15 Cloudy with Light Thunderstorms 53 11.9 50 10.2 89 89 E 13 20 29.97 1015 7 11.26538 0 0
2:35 am 02:35 Cloudy with Light Rain 53 11.5 50 10.1 91 91 E 15 24 29.97 1015 5 8.0467 0.02 0.508
2:55 am 02:55 Cloudy with Light Thunderstorms 53 11.5 50 10.2 92 92 E 14 22 29.97 1015 5 8.0467 0.03 0.762
3:15 am 03:15 Cloudy with Mist and Fog 52 11.3 50 10.1 92 92 E 13 20 29.97 1015 4 6.43736 0 0
3:35 am 03:35 Cloudy with Nearby Thunderstorms 52 11.3 50 10.2 93 93 E 12 19 29.97 1015 4 6.43736 0 0
3:55 am 03:55 Cloudy with Light Rain 52 11.2 50 10.1 93 93 E 13 20 29.97 1015 4 6.43736 0 0
4:15 am 04:15 Cloudy with Mist and Fog 52 11.1 50 10 93 93 E 12 19 29.97 1015 3 4.82802 0 0
4:35 am 04:35 Cloudy with Mist and Fog 52 11.2 50 10.1 93 93 ESE 13 20 29.97 1015 4 6.43736 0 0
4:55 am 04:55 Cloudy with Mist and Fog 52 11.1 50 10.1 94 94 E 12 19 29.97 1015 3 4.82802 0 0
5:15 am 05:15 Cloudy with Mist and Fog 52 11 50 10 94 94 E 10 17 29.97 1015 3 4.82802 0 0
5:35 am 05:35 Cloudy with Light Rain 52 11 50 10 94 94 E 9 15 29.97 1015 3 4.82802 0 0
5:55 am 05:55 Cloudy with Mist and Fog 52 11 50 10.1 94 94 E 10 17 29.97 1015 2.5 4.02335 0 0
6:15 am 06:15 Cloudy with Mist and Fog 52 11 50 10.1 94 94 E 10 17 29.97 1015 2.5 4.02335 0 0
6:35 am 06:35 Cloudy with Mist and Fog 52 11 50 10.2 95 95 E 12 19 29.97 1015 2 3.21868 0 0
6:55 am 06:55 Cloudy with Mist and Fog 52 10.9 50 10.2 95 95 E 10 17 29.97 1015 1.25 2.011675 0 0
7:15 am 07:15 Cloudy with Mist and Fog 52 11 51 10.3 95 95 E 8 13 30 1016 0.75 1.207005 0 0
7:35 am 07:35 Cloudy with Fog 52 11 51 10.3 95 95 E 8 13 30 1016 0.5 0.80467 0 0
7:55 am 07:55 Cloudy with Fog 52 11 51 10.3 95 95 E 7 11 30 1016 0.5 0.80467 0 0
8:15 am 08:15 Cloudy with Fog 52 11 51 10.3 95 95 E 7 11 30 1016 0.25 0.402335 0 0
8:35 am 08:35 Cloudy with Fog 52 11 51 10.5 97 97 E 12 19 30 1016 0.5 0.80467 0 0
8:55 am 08:55 Cloudy with Fog 52 11.1 51 10.6 97 97 E 12 19 30 1016 0.5 0.80467 0 0
9:15 am 09:15 Cloudy with Mist and Fog 52 11.2 51 10.7 97 97 ESE 10 17 30.03 1017 0.75 1.207005 0 0
9:35 am 09:35 Cloudy with Mist and Fog 53 11.5 52 11 97 97 E 9 15 30.03 1017 1.25 2.011675 0 0
9:55 am 09:55 Cloudy with Fog 53 11.5 52 11 97 97 E 12 19 30.03 1017 0.5 0.80467 0 0
10:15 am 10:15 Cloudy with Fog 53 11.6 52 11.1 97 97 E 8 13 30.03 1017 0.25 0.402335 0 0
10:35 am 10:35 Cloudy with Fog 54 12 53 11.5 97 97 E 10 17 30.03 1017 0.25 0.402335 0 0
10:55 am 10:55 Cloudy with Mist and Fog 54 12.3 53 11.8 97 97 ESE 9 15 30.03 1017 1 1.60934 0 0
11:15 am 11:15 Cloudy with Mist and Fog 55 12.9 54 12.4 97 97 E 9 15 30 1016 4 6.43736 0.01 0.254
11:35 am 11:35 Cloudy 56 13.4 55 12.5 94 94 E 7 11 30 1016 7 11.26538 0.01 0.254
11:55 am 11:55 Cloudy 55 13 53 11.5 91 91 E 8 13 30.06 1018 7 11.26538 0.01 0.254
12:15 pm 12:15 Cloudy 55 13 53 11.6 91 91 E 6 9 30.06 1018 7 11.26538 0 0
12:35 pm 12:35 Cloudy with Mist and Fog 55 13 53 11.6 91 91 E 6 9 30.06 1018 5 8.0467 0 0
12:55 pm 12:55 Cloudy with Mist and Fog 55 13 53 11.6 91 91 E 9 15 30.06 1018 5 8.0467 0 0
1:15 pm 13:15 Cloudy with Mist and Fog 55 13 53 11.7 92 92 ENE 9 15 30.06 1018 4 6.43736 0 0
1:35 pm 13:35 Cloudy with Mist and Fog 56 13.5 54 12 91 91 ENE 12 19 30.03 1017 5 8.0467 0 0
1:55 pm 13:55 Cloudy with Mist and Fog 56 13.6 54 12.1 91 91 ENE 10 17 30 1016 5 8.0467 0 0
2:15 pm 14:15 Cloudy 58 14.5 55 12.8 90 90 NE 13 20 30 1016 7 11.26538 0 0
2:35 pm 14:35 Cloudy 60 15.5 55 13 85 85 ENE 14 22 30 1016 7 11.26538 0 0
2:55 pm 14:55 Cloudy 60 15.3 55 12.8 85 85 NE 10 17 30 1016 10 16.0934 0 0
3:15 pm 15:15 Cloudy 61 15.9 55 12.7 81 81 NE 15 24 30 1016 7 11.26538 0 0
3:35 pm 15:35 Cloudy 60 15.8 55 12.8 82 82 NE 13 20 30 1016 7 11.26538 0 0
3:55 pm 15:55 Cloudy 60 15.4 55 12.9 85 85 NE 12 19 30 1016 7 11.26538 0 0
4:15 pm 16:15 Mostly Cloudy 60 15.6 55 12.6 82 82 NNE 14 22 29.94 1014 7 11.26538 0 0
4:35 pm 16:35 Partly Cloudy 60 15.8 55 12.9 83 83 NNE 13 20 29.94 1014 7 11.26538 0 0
4:55 pm 16:55 Mostly Cloudy 60 15.7 55 12.8 83 83 NNE 15 24 29.94 1014 7 11.26538 0 0
5:15 pm 17:15 Mostly Cloudy 60 15.4 55 12.7 84 84 N 14 22 30 1016 7 11.26538 0 0
5:35 pm 17:35 Mostly Cloudy 59 15.1 55 12.7 86 86 N 15 24 30 1016 7 11.26538 0 0
5:55 pm 17:55 Cloudy with Thunderstorms 58 14.2 55 12.7 91 91 N 12 19 30 1016 4 6.43736 0 0
6:15 pm 18:15 Mostly Cloudy with Light Rain 57 13.9 55 12.6 92 92 NNW 16 26 30 1016 4 6.43736 0.01 0.254
6:35 pm 18:35 Mostly Cloudy with Light Rain 57 13.7 55 12.5 93 93 NNW 15 24 30 1016 4 6.43736 0.01 0.254
6:55 pm 18:55 Cloudy 56 13.6 55 12.5 93 93 NNW 12 19 30.03 1017 4 6.43736 0.02 0.508
7:15 pm 19:15 Cloudy with Thunderstorms 57 13.7 55 12.5 93 93 N 8 13 30.03 1017 5 8.0467 0.02 0.508
7:35 pm 19:35 Cloudy with Nearby Thunderstorms 56 13.6 55 12.5 93 93 N 6 9 30.03 1017 3 4.82802 0.16 4.064
7:55 pm 19:55 Cloudy with Heavy Rain 57 14 55 12.6 91 91 N 9 15 30 1016 5 8.0467 0.19 4.826
8:15 pm 20:15 Cloudy with Nearby Thunderstorms 56 13.3 54 12.1 93 93 NE 16 26 30 1016 5 8.0467 0.05 1.27
8:35 pm 20:35 Cloudy with Rain 55 12.7 53 11.8 94 94 NNE 12 19 30.06 1018 7 11.26538 0.09 2.286
8:55 pm 20:55 Cloudy with Light Rain 54 12.4 53 11.5 94 94 NE 16 26 30.03 1017 10 16.0934 0.13 3.302
9:15 pm 21:15 Mostly Cloudy 54 12 52 10.9 93 93 ENE 14 22 30.06 1018 10 16.0934 0 0
9:35 pm 21:35 Partly Cloudy 54 12.2 52 11.1 93 93 ENE 13 20 30.06 1018 10 16.0934 0 0
9:55 pm 21:55 Clear with Nearby Thunderstorms 54 12.2 52 11.1 93 93 ENE 13 20 30.06 1018 10 16.0934 0 0
10:15 pm 22:15 Partly Cloudy 54 12 52 11.1 94 94 ENE 10 17 30.06 1018 10 16.0934 0 0
10:35 pm 22:35 Mostly Cloudy 54 12.3 52 11.3 94 94 ENE 13 20 30.06 1018 10 16.0934 0 0
10:55 pm 22:55 Cloudy 55 12.5 52 11.2 92 92 E 13 20 30.06 1018 10 16.0934 0 0
11:15 pm 23:15 Mostly Cloudy 55 12.7 53 11.5 92 92 E 13 20 30.06 1018 10 16.0934 0 0
11:35 pm 23:35 Partly Cloudy 55 12.7 52 11.3 91 91 E 12 19 30.06 1018 10 16.0934 0 0
11:55 pm 23:55 Partly Cloudy 54 12.4 52 11 91 91 E 10 17 30.06 1018 10 16.0934 0 0

Powered by AerisWeather